Murray, KY

9:34 AM CST on November 13, 2019 (GMT -0600)
Kyle-Oakley

Weather History for KCEY - September, 2019

Change the Weather History Date:

Wednesday, September 18, 2019

  Actual Average (WUND) Record (WUND)
Temperature  
Mean Temperature 78 °F -  
Max Temperature 91 °F - - (-1)
Min Temperature 66 °F - - (-1)
Cooling Degree Days 14    
Growing Degree Days 28 (Base 50)    
Moisture  
Dew Point 64 °F    
Average Humidity 68    
Maximum Humidity 100    
Minimum Humidity 31    
Precipitation  
Precipitation 0.00 in - - ()
Sea Level Pressure  
Sea Level Pressure 30.03 in    
Wind  
Wind Speed 4 mph (NNE)    
Max Wind Speed 10 mph    
Max Gust Speed 17 mph    
Visibility 10 miles    
Events      
Averages and records for this station are not official NWS values.
T = Trace of Precipitation, MM = Missing Value Source: NWS Daily Summary

Daily Weather History Graph

Daily Weather History Graph

Search for Another Location

Airport or City:

Astronomy

Sep. 18, 2019 Rise Set
Actual Time 6:37 AM CDT 6:56 PM CDT
Civil Twilight 6:12 AM CDT 7:22 PM CDT
Nautical Twilight 5:41 AM CDT 7:52 PM CDT
Astronomical Twilight 5:10 AM CDT 8:23 PM CDT
Moon 9:37 PM CDT (9/18) 10:35 AM CDT (9/18)
Length of Visible Light 13h 10m
Length of Day
12h 18m
Waning Gibbous, 82% of the Moon is Illuminated
Sep 18
Waning Gibbous
Sep 21
Last Quarter
Sep 28
New
Oct 5
First Quarter
Oct 13
Full

Hourly Weather History & Observations

Time (CDT) Temp. Heat Index Dew Point Humidity Pressure Visibility Wind Dir Wind Speed Gust Speed Precip Events Conditions
12:15 AM 73.4 °F - 69.8 °F 88% 30.02 in 10.0 mi NE 4.6 mph - N/A   Clear
12:35 AM 71.6 °F - 69.8 °F 94% 30.02 in 10.0 mi NE 4.6 mph - N/A   Clear
12:55 AM 71.6 °F - 69.8 °F 94% 30.02 in 10.0 mi NE 3.5 mph - N/A   Clear
1:15 AM 71.6 °F - 69.8 °F 94% 30.03 in 10.0 mi NNE 3.5 mph - N/A   Unknown
1:35 AM 71.6 °F - 69.8 °F 94% 30.02 in 10.0 mi NNE 3.5 mph - N/A   Unknown
1:55 AM 71.6 °F - 69.8 °F 94% 30.02 in 10.0 mi NE 3.5 mph - N/A   Clear
2:15 AM 68.0 °F - 68.0 °F 100% 30.02 in 10.0 mi NNE 3.5 mph - N/A   Clear
2:35 AM 69.8 °F - 69.8 °F 100% 30.02 in 10.0 mi NNE 4.6 mph - N/A   Clear
2:55 AM 68.0 °F - 68.0 °F 100% 30.02 in 10.0 mi NNE 5.8 mph - N/A   Unknown
3:15 AM 68.0 °F - 68.0 °F 100% 30.02 in 10.0 mi NE 3.5 mph - N/A   Unknown
3:35 AM 68.0 °F - 68.0 °F 100% 30.01 in 10.0 mi NE 4.6 mph - N/A   Clear
3:55 AM 68.0 °F - 68.0 °F 100% 30.01 in 10.0 mi NE 4.6 mph - N/A   Clear
4:15 AM 68.0 °F - 68.0 °F 100% 30.02 in 10.0 mi NE 3.5 mph - N/A   Clear
4:55 AM 68.0 °F - 68.0 °F 100% 30.02 in 10.0 mi ENE 3.5 mph - N/A   Unknown
5:15 AM 68.0 °F - 68.0 °F 100% 30.02 in 10.0 mi Calm Calm - N/A   Unknown
5:35 AM 66.2 °F - 66.2 °F 100% 30.03 in 10.0 mi NE 3.5 mph - N/A   Unknown
6:15 AM 66.2 °F - 66.2 °F 100% 30.04 in 10.0 mi NE 4.6 mph - N/A   Unknown
6:35 AM 66.2 °F - 66.2 °F 100% 30.04 in 10.0 mi ENE 4.6 mph - N/A   Clear
6:55 AM 66.2 °F - 66.2 °F 100% 30.04 in 10.0 mi ENE 3.5 mph - N/A   Clear
7:15 AM 66.2 °F - 66.2 °F 100% 30.05 in 10.0 mi Calm Calm - N/A   Clear
7:35 AM 68.0 °F - 68.0 °F 100% 30.05 in 10.0 mi NE 4.6 mph - N/A   Clear
7:55 AM 69.8 °F - 68.0 °F 94% 30.05 in 10.0 mi East 3.5 mph - N/A   Clear
8:15 AM 73.4 °F - 66.2 °F 78% 30.05 in 10.0 mi Calm Calm - N/A   Clear
8:35 AM 75.2 °F - 66.2 °F 73% 30.05 in 10.0 mi East 3.5 mph - N/A   Clear
8:55 AM 75.2 °F - 64.4 °F 69% 30.05 in 10.0 mi ENE 5.8 mph - N/A   Clear
9:15 AM 77.0 °F - 66.2 °F 69% 30.05 in 10.0 mi ENE 5.8 mph - N/A   Clear
9:35 AM 78.8 °F - 66.2 °F 65% 30.05 in 10.0 mi ENE 3.5 mph - N/A   Clear
9:55 AM 80.6 °F 82.7 °F 66.2 °F 61% 30.05 in 10.0 mi Calm Calm - N/A   Clear
10:15 AM 84.2 °F 86.6 °F 66.2 °F 55% 30.05 in 10.0 mi Calm Calm - N/A   Clear
10:35 AM 86.0 °F 88.2 °F 66.2 °F 51% 30.05 in 10.0 mi Calm Calm - N/A   Clear
10:55 AM 86.0 °F 87.3 °F 64.4 °F 48% 30.05 in 10.0 mi West 4.6 mph - N/A   Clear
11:15 AM 86.0 °F 86.6 °F 62.6 °F 45% 30.05 in 10.0 mi North 5.8 mph - N/A   Clear
11:55 AM 87.8 °F 88.5 °F 62.6 °F 43% 30.05 in 10.0 mi NNW 6.9 mph - N/A   Clear
12:15 PM 89.6 °F 90.1 °F 62.6 °F 40% 30.05 in 10.0 mi NE 9.2 mph - N/A   Clear
12:35 PM 89.6 °F 88.9 °F 59.0 °F 36% 30.05 in 10.0 mi NW 8.1 mph - N/A   Clear
12:55 PM 91.4 °F 91.4 °F 60.8 °F 36% 30.04 in 10.0 mi WNW 6.9 mph - N/A   Clear
1:15 PM 89.6 °F 90.1 °F 62.6 °F 40% 30.04 in 10.0 mi NW 3.5 mph - N/A   Clear
1:35 PM 89.6 °F 89.5 °F 60.8 °F 38% 30.04 in 10.0 mi WNW 9.2 mph - N/A   Clear
1:55 PM 91.4 °F 90.7 °F 59.0 °F 34% 30.03 in 10.0 mi North 9.2 mph - N/A   Clear
2:15 PM 91.4 °F 89.9 °F 57.2 °F 31% 30.03 in 10.0 mi NNW 6.9 mph - N/A   Clear
2:35 PM 91.4 °F 90.7 °F 59.0 °F 34% 30.02 in 10.0 mi WNW 10.4 mph - N/A   Clear
2:55 PM 91.4 °F 90.7 °F 59.0 °F 34% 30.02 in 10.0 mi NNW 9.2 mph - N/A   Clear
3:15 PM 91.4 °F 90.7 °F 59.0 °F 34% 30.01 in 10.0 mi NNW 8.1 mph - N/A   Clear
3:35 PM 91.4 °F 90.7 °F 59.0 °F 34% 30.01 in 10.0 mi North 5.8 mph - N/A   Clear
3:55 PM 89.6 °F 88.9 °F 59.0 °F 36% 30.01 in 10.0 mi NNW 4.6 mph 17.3 mph N/A   Clear
4:15 PM 89.6 °F 88.9 °F 59.0 °F 36% 30.01 in 10.0 mi NNE 5.8 mph - N/A   Clear
4:35 PM 89.6 °F 88.9 °F 59.0 °F 36% 30.00 in 10.0 mi NE 6.9 mph - N/A   Clear
4:55 PM 89.6 °F 88.9 °F 59.0 °F 36% 30.00 in 10.0 mi ENE 5.8 mph - N/A   Clear
5:15 PM 89.6 °F 88.9 °F 59.0 °F 36% 30.00 in 10.0 mi NNE 9.2 mph - N/A   Clear
5:35 PM 89.6 °F 88.9 °F 59.0 °F 36% 30.00 in 10.0 mi NNE 8.1 mph - N/A   Clear
5:55 PM 87.8 °F 87.1 °F 59.0 °F 38% 30.00 in 10.0 mi NNE 4.6 mph - N/A   Clear
6:15 PM 86.0 °F 85.4 °F 59.0 °F 40% 29.99 in 10.0 mi NNE 4.6 mph - N/A   Clear
6:35 PM 84.2 °F 85.0 °F 62.6 °F 48% 29.99 in 10.0 mi Calm Calm - N/A   Clear
6:55 PM 78.8 °F - 62.6 °F 57% 30.00 in 10.0 mi Calm Calm - N/A   Clear
7:15 PM 78.8 °F - 62.6 °F 57% 30.00 in 10.0 mi Calm Calm - N/A   Clear
7:35 PM 77.0 °F - 62.6 °F 61% 30.00 in 10.0 mi Calm Calm - N/A   Clear
7:55 PM 77.0 °F - 62.6 °F 61% 30.01 in 10.0 mi Calm Calm - N/A   Clear
8:15 PM 75.2 °F - 62.6 °F 65% 30.01 in 10.0 mi Calm Calm - N/A   Clear
8:35 PM 75.2 °F - 62.6 °F 65% 30.01 in 10.0 mi NNE 4.6 mph - N/A   Clear
8:55 PM 75.2 °F - 62.6 °F 65% 30.02 in 10.0 mi NE 3.5 mph - N/A   Clear
9:15 PM 73.4 °F - 64.4 °F 73% 30.02 in 10.0 mi Calm Calm - N/A   Clear
9:35 PM 71.6 °F - 64.4 °F 78% 30.03 in 10.0 mi Calm Calm - N/A   Clear
9:55 PM 71.6 °F - 64.4 °F 78% 30.03 in 10.0 mi Calm Calm - N/A   Clear
10:15 PM 71.6 °F - 64.4 °F 78% 30.03 in 10.0 mi Calm Calm - N/A   Clear
10:35 PM 71.6 °F - 64.4 °F 78% 30.03 in 10.0 mi NNE 4.6 mph - N/A   Unknown
10:55 PM 71.6 °F - 66.2 °F 83% 30.03 in 10.0 mi East 3.5 mph - N/A   Clear
11:15 PM 68.0 °F - 66.2 °F 94% 30.03 in 10.0 mi Calm Calm - N/A   Unknown
11:35 PM 68.0 °F - 66.2 °F 94% 30.03 in 10.0 mi Calm Calm - N/A   Unknown
11:55 PM 68.0 °F - 66.2 °F 94% 30.03 in 10.0 mi Calm Calm - N/A   Unknown